OBJECT C, 64627

Orbit data source: Space-Track

You're viewing an Uncataloged Satellite

Recently launched and/or uncataloged satellites may have evolving metadata. Metadata may include but not limited to: Owner, Maufacturer, Bus, Motor, and Mission.

OBJECT C, 64627 is a satellite owned by TsNIIKhM (CIS) in SSO that was launched on Mon, 01 Aug 2022 UTC via a SOYUZ-2-1V launch vehicle from the Plesetsk Missile And Space Complex (PKMTR). Unknown objects in Earth's orbit typically refer to objects detected orbiting the Earth but have not yet been identified or cataloged. These objects could be anything from previously untracked satellites, spent rocket stages, debris from satellite collisions, or even natural meteoroids temporarily captured by Earth's gravity.

Loading next visibility...
Identifier
64627, 2022-089C
Orbit
SSO
Country
Flag of CISCIS
Related business
Manufacturer
TsNIIKhM
Mission
Defense Technology
Bus & Motor
NIVELIR, Unknown motor
Mass
~100 kg wet, ~100 kg dry
Launch date (UTC)
2022-08-01 (3 years ago)
Launch vehicle
SOYUZ-2-1V
Launch site
Plesetsk Missile And Space Complex (PKMTR)
Object type
Unknown
Shape & HBR
Hex Cyl + 1 Ant, 0.5 m
Radar Cross Section
0.352 m², Medium (>0.1 m² and < 1m²)

Expand to show TLE details & history
Last TLE update: 3 days ago

TLE from 3 days ago
0 OBJECT C
1 64627U 22089C   25239.75042513  .00012715  00000-0  35957-3 0  9992
2 64627  97.2362 335.4274 0016136  77.9016 282.4036 15.36321192  9569
Epoch: 2025-08-27T18:00Z
TLE epoch observation values (Epoch: 2025-08-27T18:00:36.731Z)
Latitude
0.00006°
Longitude
89.05105°
Altitude
457.764 km
Speed
7.639 km/s
True Right ascension
22h 21m 42s
True Declination
0° 00' 00"
Sunlit
Object was in full shadow at epoch
Visualization orbit readout
Latitude
Unknown
Longitude
Unknown
Altitude
Unknown
Speed
Unknown
Apparent Right ascension
Unknown
Apparent Declination
Unknown
Sunlit
N/A
Visualization observer readout
Local Sidereal Time
02:24:16
Azimuth
Unknown
Elevation
Unknown
Doppler factor
Unknown
Orbital elements
Apogee altitude
464.96 km
Perigee altitude
442.912 km
Semi-major axis
6,832.073 km
Eccentricity
0.00161
Inclination
97.2362°
RAAN
335.4274°
Arg. of periapsis
77.9016°
True anomaly
282.22293°
Mean anomaly
282.4036°
Eccentric anomaly
282.31327°
Mean motion
3.84339 °/min
Orbital period
93.67 mins
BSTAR
0.00035957
Loading maneuver chart data...
Computing Atmospheric mass density...
Loading historical data...
Loading historical data...
Loading historical data...
Loading historical data...
Loading historical data...
Loading historical data...
Loading historical data...
Other satellites on launch #89 in the year 2022 (2022-08-01 UTC)

Documentation

Showing up to 5 results
|